Weather Roundup
Issued by NWS

Home | Current Version | Previous Version | Text Only | Print | Product List | Glossary On
Versions: 1 2 3 4 5 6 7 8 9 10 11 12 13 14 15 16 17 18 19 20 21 22 23 24 25 26 27 28 29 30 31 32 33 34 35 36 37 38 39 40 41 42 43 44 45 46 47 48 49 50
000
NZUS93 KARX 161159
HRRWXR

CURRENT HOURLY OBSERVATIONS ACROSS
MUCH OF THE UPPER MISSISSIPPI VALLEY
NATIONAL WEATHER SERVICE LA CROSSE WI
700 AM CDT MON OCT 16 2017


...SOUTHEAST MINNESOTA...


CITY           SKY/WX    TMP DP  RH WIND       PRES   REMARKS
ROCHESTER      PTCLDY    34  33  96 S6        30.25S WCI  29
ROCHESTER/MAYO FAIR      38  35  90 CALM      30.25F
WINONA         CLEAR     34  34 100 CALM      30.27R FOG
AUSTIN         CLEAR     36  34  93 S3        30.25F
ALBERT LEA     CLEAR     37  37 100 CALM      30.26S
DODGE CENTER   CLEAR     34  32  93 SW6       30.25S WCI  29
PRESTON        CLOUDY    36  33  89 SW7       30.26S WCI  30
OWATONNA       CLEAR     36  34  93 S5        30.25S WCI  32
FARIBAULT      CLEAR     36  34  93 CALM      30.24S
$$

...ELSEWHERE IN MINNESOTA...


CITY           SKY/WX    TMP DP  RH WIND       PRES   REMARKS
MINNEAPOLIS    PTCLDY    40  37  89 SW5       30.22S
INTNL FALLS    CLOUDY    30  28  92 S3        30.06F
DULUTH         PTCLDY    33  32  96 W8        30.14S WCI  26
RED WING       CLEAR     34  32  93 CALM      30.23S
REDWOOD FALLS  CLEAR     34  29  82 SW6       30.23S WCI  29
MANKATO        PTCLDY    35  32  88 S5        30.25S WCI  31
WORTHINGTON    CLEAR     35  31  85 SW6       30.26F WCI  30
FAIRMONT       CLEAR     35  31  85 SW6       30.27S WCI  30
$$

...SOUTHWEST WISCONSIN...


CITY           SKY/WX    TMP DP  RH WIND       PRES   REMARKS
LA CROSSE      CLEAR     39  38  96 SE8       30.26S WCI  33
PRAIRIE DU CHI CLEAR     37  35  90 CALM      30.29R
BOSCOBEL       FOG       38  38 100 S3        30.29R VSB 1/4
LONE ROCK      FOG       36  36 100 CALM      30.28R VSB<1/4
PLATTEVILLE    CLEAR     38  38 100 W7        30.29R WCI  32
FORT MC COY    FOG       29  29 100 CALM      30.27S VSB 3/4
MAUSTON-NEW LI SUNNY     33  32  99 CALM      30.25R FOG
VIROQUA        FAIR      38  38  99 W5        30.26R WCI  35
WIS DELLS      CLEAR     34  34  99 CALM      30.26R
$$

...ELSEWHERE IN WISCONSIN...


CITY           SKY/WX    TMP DP  RH WIND       PRES   REMARKS
MILWAUKEE      PTCLDY    45  41  86 CALM      30.27R
MADISON        PTCLDY    38  37  97 CALM      30.27R
GREEN BAY      CLEAR     38  38 100 S3        30.24S
EAU CLAIRE     NOT AVBL
BLACK RVR FLS  NOT AVBL
MEDFORD        CLEAR     33  32  98 CALM      30.21S
WAUSAU         CLEAR     34  34 100 E3        30.21S FOG
WIS RAPIDS     FOG       32  31  96 CALM      30.25S VSB 1/4
MARSHFIELD     CLEAR     34  32  92 CALM      30.22S
RICE LAKE      PTCLDY    32  31  99 CALM      30.23S
$$

...NORTHEAST IOWA...


CITY           SKY/WX    TMP DP  RH WIND       PRES   REMARKS
WATERLOO       CLEAR     32  30  92 CALM      30.29S
DUBUQUE        CLEAR     38  34  85 CALM      30.29R
DECORAH        CLEAR     37  36  93 CALM      30.26F
MASON CITY     CLEAR     35  32  88 W5        30.29S WCI  31
CHARLES CITY   PTCLDY    34  34 100 CALM      30.28S
OELWEIN        CLEAR     36  34  93 CALM      30.30R
$$

...ELSEWHERE IN IOWA...


CITY           SKY/WX    TMP DP  RH WIND       PRES   REMARKS
DES MOINES     CLEAR     40  34  79 SW5       30.32S
IOWA CITY      CLEAR     39  34  82 CALM      30.34R
FORT DODGE     CLEAR     33  31  92 CALM      30.31R
MARSHALLTOWN   CLEAR     34  32  92 CALM      30.30S
CEDAR RAPIDS   CLEAR     35  33  92 NW5       30.30R WCI  31
$$

...NORTHERN ILLINOIS...


CITY           SKY/WX    TMP DP  RH WIND       PRES   REMARKS
CHICAGO-OHARE  PTCLDY    44  38  79 W6        30.29S
CHICAGO-MIDWAY PTCLDY    44  41  89 SW6       30.30R
MOLINE         CLEAR     40  36  86 W3        30.31R
ROCKFORD       CLEAR     38  36  92 S5        30.31R WCI  34
PEORIA         CLEAR     39  38  96 S5        30.34S
$$

NOTE: "FAIR" INDICATES FEW OR NO CLOUDS BELOW 12,000 FEET WITH NO
SIGNIFICANT WEATHER AND/OR OBSTRUCTIONS TO VISIBILITY. WIND
SPEEDS ARE IN MILES-PER-HOUR.




USA.gov is the U.S. government's official web portal to all federal, state and local government web resources and services.